www.pogodaiklimat.ru

Погода и климат >> Архив погоды >> Россия >> Красноярский край >> Караул


ПОГОДА в Карауле

  • Прогноз погоды в Карауле
  • Монитор погоды в Карауле

АРХИВ ПОГОДЫ в Карауле

Время (UTC), дата Ветер
(напр.,м/с)
 
Видим.   Явления Облачность Т
(С)
Тd
(С)
f
(%)
Тe
(С)
Тes
(С)
Комфортность P
(гПа)
Po
(гПа)
Тmin
(С)
Tmax
(С)
R
(мм)
R24
(мм)
S
(см)
15 11.07 В 2 50 км 10/0 2000 м
[Ac As]
+15.2 +6.4 56 +15 +15 1011.7 1008.3
18 11.07 В 5 50 км 10/0 2000 м
[Ac As]
+14.3 +7.4 63 +13 +13 1010.6 1007.2
21 11.07 В 6 20 км 10/0 2000 м
[Ac As]
+13.3 +7.8 69 +11 +11 1009.2 1005.8
00 12.07 В 8-13
{13}
4000 м дождь 10/0 2000 м
[As op]
+11.8 +9.0 83 +8 +9 1006.4 1003.0 +11.6 2
03 12.07 В 9-14
{14}
2000 м дождь 10/0 600 м
[As op]
+11.0 +9.8 92 +7 +7 1004.0 1000.5
06 12.07 В 8-13
{14}
20 км {дождь} 10/10 600 м
[Sc]
+11.2 +10.4 95 +7 +7 1003.0 999.6
09 12.07 В 6
{13}
20 км {ливн. осадки} 9/9 300 м
[Cb cap]
+13.0 +12.1 94 +10 +11 1002.1 998.7
12 12.07 Ю 4 50 км {ливн. осадки} 8/4 600 м
[Sc Ac trans]
+17.2 +14.8 86 +17 +18 1003.3 999.9 +17.5 10
15 12.07 Ю 10-14
{14}
50 км {ливн. осадки} 8/3 300 м
[Cb cap Ac trans Ci fib]
+15.7 +13.9 89 +14 +14 1003.9 1000.5
18 12.07 Ю 7
{14}
50 км {ливн. осадки} 9/6 300 м
[Sc Ac trans Ci fib]
+14.2 +12.2 88 +12 +12 1004.9 1001.5
21 12.07 Ю 9-12
{13}
50 км 10/10 600 м
[Sc]
+11.6 +10.4 92 +8 +8 1005.4 1002.0
00 13.07 Ю 7
{12}
4000 м морось 10/10 300 м
[St]
+8.8 +8.4 97 +4 +4 1005.9 1002.4 +8.6 0.4
03 13.07 Ю 7 4000 м слаб. морось 10/10 300 м
[St]
+9.0 +8.6 97 +5 +5 1007.0 1003.5
06 13.07 Ю 7 4000 м слаб. морось 10/10 300 м
[St]
+9.8 +9.4 97 +6 +6 1008.2 1004.7
09 13.07 С 8-12
{12}
4000 м {морось} 10/10 300 м
[St]
+10.5 +8.9 90 +7 +7 1010.7 1007.2
12 13.07 С 8-12
{12}
20 км {морось} 10/10 300 м
[Sc]
+10.0 +9.2 95 +6 +6 1014.8 1011.0 +17.2 0.6
15 13.07 С 8-12
{12}
20 км 9/9 600 м
[Sc]
+9.3 +8.1 92 +5 +5 1018.3 1014.8
18 13.07 С 7-10
{12}
20 км 9/8 600 м
[Sc Ac trans]
+8.0 +6.5 90 +3 +3 1018.5 1015.0
21 13.07 С 7
{10}
20 км 8/4 600 м
[Sc Ac trans]
+7.2 +5.0 86 +2 +2 1019.3 1015.8
00 14.07 С 7 50 км 5/0 2000 м
[Ac trans]
+7.9 +4.8 81 +3 +4 1019.9 1016.4 +7.0
03 14.07 С 4 50 км 9/0 2000 м
[Ac trans]
+9.7 +6.1 78 +7 +9 1020.5 1017.0
06 14.07 штиль 0 50 км 10/0 2000 м
[Ac As]
+12.9 +7.1 68 +13 +16 1019.7 1016.2
09 14.07 штиль 0 50 км 9/0 2000 м
[Ac As]
+14.8 +8.9 68 +15 +19 1018.8 1015.4
12 14.07 штиль 0 50 км 9/0 2000 м
[Ac As]
+16.2 +9.9 66 +16 +18 1017.8 1014.4 +16.2
15 14.07 В 2 20 км 9/0 2000 м
[Ac trans]
+15.0 +11.3 79 +15 +15 1016.6 1013.2
18 14.07 В 3 20 км слаб. ливневой дождь 10/8 600 м
[Cb cap Ac As]
+14.3 +13.2 93 +13 +13 1015.3 1011.9
21 14.07 ЮВ 5 20 км {ливн. осадки} 10/10 600 м
[Sc]
+14.3 +12.5 89 +13 +13 1013.6 1010.2
00 15.07 ЮВ 7-12
{12}
20 км в посл. час ливневой дождь 10/10 600 м
[Cb cap]
+12.7 +11.2 91 +10 +10 1012.0 1008.6 +12.5 10
03 15.07 ЮВ 7-12
{12}
50 км 9/9 600 м
[Sc]
+15.0 +13.2 89 +13 +13 1011.3 1007.9
06 15.07 ЮВ 5
{12}
50 км 9/9 600 м
[Sc]
+18.8 +14.3 75 +19 +20 1010.4 1007.0
09 15.07 В 3 50 км 9/3 600 м
[Cu Sc Ac trans Ci fib]
+23.2 +17.3 69 +28 +31 душно 1009.0 1005.7
12 15.07 штиль 0 20 км 8/0 2000 м
[Ac trans Ci fib]
+25.4 +18.5 66 +30 +33 душно 1008.4 1005.2 +25.8
15 15.07 штиль 0 50 км 8/0 2000 м
[Ac trans]
+24.2 +19.5 75 +29 +30 душно 1008.8 1005.5
18 15.07 ЮВ 2 50 км 5/0 2000 м
[Ac trans Ci fib]
+21.4 +18.9 86 +26 +26 душно 1008.6 1005.3
21 15.07 ЮЗ 2 50 км 4/0
[Ac trans Ci fib]
+18.8 +17.5 92 +21 +21 комфорт 1010.3 1006.9
00 16.07 З 2 20 км 5/1 600 м
[Sc Ac trans Ci fib]
+16.4 +15.9 97 +16 +18 1012.3 1008.9 +16.2
03 16.07 З 6 20 км 8/3 600 м
[Sc Ac trans Ci fib]
+17.2 +16.4 95 +16 +17 1013.4 1010.0
06 16.07 З 4 20 км 9/9 600 м
[Sc]
+14.2 +11.8 85 +13 +13 1016.3 1012.9
09 16.07 З 4 20 км 9/9 600 м
[Sc]
+13.7 +10.6 82 +12 +13 1017.9 1013.9
12 16.07 С 4 20 км 9/9 600 м
[Sc]
+12.3 +8.9 80 +10 +11 1017.5 1014.1 +17.2
15 16.07 С 2 20 км 10/10 600 м
[Sc]
+11.0 +7.7 80 +10 +10 1018.1 1014.7
18 16.07 С 2 20 км 10/10 600 м
[Sc]
+9.8 +6.4 79 +8 +8 1019.6 1016.1
21 16.07 С 2 20 км 10/10 600 м
[Sc]
+8.5 +4.6 76 +7 +7 1020.5 1017.0
00 17.07 С 3 20 км 9/9 600 м
[Sc]
+12.0 +10.4 90 +10 +10 1020.8 1017.3 +8.2
03 17.07 СВ 4 20 км 1/1 600 м
[Sc]
+15.4 +10.5 73 +14 +18 1021.0 1017.5
06 17.07 СВ 7-12
{12}
20 км ясно +17.9 +9.5 58 +17 +20 1020.1 1016.7
09 17.07 СВ 8-13
{13}
20 км ясно +20.2 +9.3 49 +21 +22 комфорт 1019.6 1016.2
12 17.07 СВ 8-13
{13}
20 км ясно +20.3 +10.3 53 +21 +22 комфорт 1019.1 1015.7 +20.3
15 17.07 СВ 8-13
{14}
50 км ясно +18.4 +8.8 54 +18 +18 1018.0 1014.6
18 17.07 СВ 6-10
{13}
20 км ясно +14.0 +9.0 72 +12 +12 1017.6 1014.2
21 17.07 СВ 8-13
{13}
20 км ясно +12.8 +8.4 75 +10 +10 1015.9 1012.5
00 18.07 В 6-10
{13}
20 км ясно +14.1 +9.4 73 +12 +13 1015.8 1012.4 +12.6
03 18.07 В 6
{10}
20 км ясно +19.6 +12.5 64 +21 +23 комфорт 1016.3 1012.9
06 18.07 В 6 50 км ясно +23.5 +13.7 54 +26 +30 жарко 1016.4 1013.1
09 18.07 В 6 20 км ясно +25.9 +13.1 45 +28 +31 жарко 1016.4 1013.1
12 18.07 В 5 50 км ясно +25.4 +13.0 46 +27 +29 жарко 1016.0 1012.7 +26.4

 

Местоположение метеостанции Караул (Красноярский край, Россия): широта 70.08 долгота 83.17 высота над уровнем моря 29 м.

В архиве по умолчанию представлена погода в Карауле за последнюю неделю. Архивные данные за месяц целиком и за предыдущие месяцы, начиная с января 2011 года, Вы можете получить, выбрав интересующий диапазон дат из раскрывающегося списка и нажав кнопку "Ввод!".


*Определитесь, кто Вы:
робот инопланетянин человек

Внимание! Время в таблицах - всемирное. Для получения местного времени необходимо прибавить поправку, которая равна 7 ч.

Смотрите также архив погоды в соседних городах и на ближайших метеорологических станциях:

Погода в Гыде (Ямало-Ненецкий АО, Россия) (196 км)
Погода в Потапово (Красноярский край, Россия) (198 км)
Погода в Сопочной Карге (Красноярский край, Россия) (200 км)
Погода в Норильске (Красноярский край, Россия) (215 км)
Погода в Крестах Таймырских (Красноярский край, Россия) (265 км)
Погода в Антипаюте (Ямало-Ненецкий АО, Россия) (269 км)
Погода в Снежногорске (Красноярский край, Россия) (286 км)
Погода в Игарке (Красноярский край, Россия) (321 км)
Погода в Тазовском (Ямало-Ненецкий АО, Россия) (341 км)
Погода в Горбиачине (Красноярский край, Россия) (345 км)

Пояснения к столбцам:

Ветер - указаны скорость ветра в м/с - средняя за 10 мин, порывы в срок и между сроками (в фигурных скобках) и направление, откуда дует ветер: С - северный, СВ - северо-восточный, В - восточный, ЮВ - юго-восточный, Ю - южный, ЮЗ - юго-западный, З - западный, СЗ - северо-западный.
Видимость - горизонтальная дальность видимости в метрах или километрах. При видимости от 1 до 10 км при отсутствии осадков обычно наблюдается дымка, при ухудшении видимости до 1 км и менее - туман. В сухую погоду видимость может ухудшаться дымом, пылью или мглою.
Явления - указаны атмосферные явления, наблюдавшиеся в срок или в последний час перед сроком; фигурными скобками обозначены явления, наблюдавшиеся между сроками (за 1-3 часа до срока); квадратными скобками обозначены град или гололедные отложения с указанием их диаметра в мм.
Облачность - указаны через наклонную черту общая и нижняя облачность в баллах и высота нижней границы облаков в метрах; квадратными скобками обозначены формы облаков: Ci - перистые, Cs - перисто-слоистые, Cc - перисто-кучевые, Ac - высококучевые, As - высокослоистые, Sc - слоисто-кучевые, Ns - слоисто-дождевые, Cu - кучевые, Cb - кучево-дождевые. Подробнее классификацию облаков см. в Атласе облаков (PDF).
T - Температура воздуха - температура, измеренная на высоте 2 м над землей.
Td - Температура точки росы - температура, при понижении до которой содержащийся в воздухе водяной пар достигнет насыщения.
f - Относительная влажность воздуха - влажноcть воздуха, измеренная на высоте 2 м над землей.
Te - Эффективная температура - температура, которую ощущает одетый по сезону человек в тени. Характеристика душности погоды. При расчете учитывается влияние влажности воздуха и скорости ветра на теплоощущения человека.
Tes - Эффективная температура на солнце - температура, которую ощущает человек, с поправкой на солнечный нагрев. Характеристика знойности погоды. Зависит от высоты солнца над горизонтом, облачности и скорости ветра. Ночью, в пасмурную погоду, а также при ветре 12 м/с и более поправка равна нулю.
P - Атмосферное давление - приведенное к уровню моря атмосферное давление.
Po - Атмосферное давление - измеренное на уровне метеостанции атмосферное давление.
Tmin - Минимальная температура - минимум температуры воздуха на высоте 2 м над землей.
Tmax - Максимальная температура - максимум температуры воздуха на высоте 2 м над землей.
R - Количество осадков - Количество выпавших осадков за период времени, мм. При наведении курсора мыши на число - период времени, за который выпало указанное количество осадков.
R24 - Количество осадков - Количество выпавших осадков за 24 часа, мм.
S - Снежный покров - Высота снежного покрова, см. При наведении курсора мыши на число - состояние снежного покрова и степень покрытия местности в баллах.